Weather History for Shirley, NY

Change the Weather History Date:

Thursday, November 29, 2012

  Actual Average (KISP) Record (KISP)
Temperature  
Mean Temperature 37 °F 41 °F  
Max Temperature 46 °F 49 °F 66 °F (1991)
Min Temperature 28 °F 33 °F 22 °F (1996)
Degree Days  
Heating Degree Days 28 24  
Month to date heating degree days 570  
Since 1 July heating degree days 990  
Cooling Degree Days 0 0  
Month to date cooling degree days 0  
Year to date cooling degree days 787  
Moisture  
Dew Point 24 °F    
Average Humidity 58    
Maximum Humidity 75    
Minimum Humidity 40    
Precipitation  
Precipitation 0.00 in 0.14 in 0.55 in (2011)
Month to date precipitation 3.53  
Year to date precipitation 42.04  
Snow  
Snow 0.00 in 0.00 in 3.00 in (1995)
Month to date snowfall 0.4  
Since 1 July snowfall 0.4  
Snow Depth -    
Sea Level Pressure  
Sea Level Pressure 30.30 in    
Wind  
Wind Speed 6 mph (West)    
Max Wind Speed 12 mph    
Max Gust Speed 22 mph    
Visibility 10 miles    
Events      
T = Trace of Precipitation, MM = Missing Value Source: NWS Daily Summary

Daily Weather History Graph

Daily Weather History Graph

Search for Another Location

Airport:

Trip Planner

Search our weather history database for the weather conditions in past years. The results will help you decide how hot, cold, wet, or windy it might be!

Date:

Astronomy

Nov. 29, 2012 Rise Set
Actual Time 6:54 AM EST 4:24 PM EST
Civil Twilight 6:24 AM EST 4:55 PM EST
Nautical Twilight 5:50 AM EST 5:29 PM EST
Astronomical Twilight 5:17 AM EST 6:02 PM EST
Moon 5:25 PM EST (11/29) 7:39 AM EST (11/29)
Length of Visible Light 10h 30m
Length of Day
9h 30m
Full, 99% of the Moon is Illuminated
Nov 29
Full
Dec 6
Last Quarter
Dec 13
New
Dec 20
First Quarter
Dec 28
Full

Hourly Weather History & Observations

Time (EST) Temp. Windchill Dew Point Humidity Pressure Visibility Wind Dir Wind Speed Gust Speed Precip Events Conditions
1:56 AM 30.9 °F 26.2 °F 21.9 °F 69% 30.27 in 10.0 mi West 4.6 mph - N/A   Clear
2:56 AM 30.9 °F 25.2 °F 23.0 °F 72% 30.28 in 10.0 mi WSW 5.8 mph - N/A   Clear
3:56 AM 30.9 °F 25.2 °F 23.0 °F 72% 30.28 in 10.0 mi West 5.8 mph - N/A   Clear
4:56 AM 28.0 °F - 21.0 °F 75% 30.29 in 10.0 mi Calm Calm - N/A   Clear
5:56 AM 28.0 °F 21.7 °F 21.0 °F 75% 30.30 in 10.0 mi West 5.8 mph - N/A   Clear
6:56 AM 30.9 °F 25.2 °F 23.0 °F 72% 30.31 in 10.0 mi West 5.8 mph - N/A   Clear
7:56 AM 34.0 °F 29.8 °F 23.0 °F 64% 30.33 in 10.0 mi West 4.6 mph - N/A   Clear
8:56 AM 37.9 °F 32.1 °F 24.1 °F 57% 30.34 in 10.0 mi West 8.1 mph - N/A   Clear
9:56 AM 41.0 °F 34.3 °F 24.1 °F 51% 30.35 in 10.0 mi NW 11.5 mph - 0.00 in   Clear
10:56 AM 43.0 °F 37.2 °F 21.9 °F 43% 30.34 in 10.0 mi WNW 10.4 mph 21.9 mph N/A   Clear
11:56 AM 44.1 °F 38.6 °F 21.9 °F 42% 30.31 in 10.0 mi WNW 10.4 mph - N/A   Clear
12:56 PM 46.0 °F 43.9 °F 23.0 °F 40% 30.29 in 10.0 mi WSW 4.6 mph - N/A   Clear
1:56 PM 46.0 °F 41.9 °F 25.0 °F 44% 30.28 in 10.0 mi SW 8.1 mph - N/A   Clear
2:56 PM 44.1 °F 39.0 °F 26.1 °F 49% 30.27 in 10.0 mi WSW 9.2 mph - N/A   Clear
3:56 PM 43.0 °F 37.7 °F 24.1 °F 47% 30.26 in 10.0 mi SW 9.2 mph - N/A   Clear
4:56 PM 41.0 °F 35.8 °F 25.0 °F 53% 30.28 in 10.0 mi WSW 8.1 mph - N/A   Clear
5:56 PM 39.9 °F 35.1 °F 25.0 °F 55% 30.30 in 10.0 mi WSW 6.9 mph - N/A   Clear
6:56 PM 39.0 °F 34.8 °F 25.0 °F 57% 30.31 in 10.0 mi WSW 5.8 mph - N/A   Clear
7:56 PM 39.9 °F 33.4 °F 25.0 °F 55% 30.31 in 10.0 mi West 10.4 mph - N/A   Clear
8:56 PM 39.0 °F 34.0 °F 25.0 °F 57% 30.33 in 10.0 mi West 6.9 mph - N/A   Clear
9:56 PM 39.0 °F 34.8 °F 24.1 °F 55% 30.32 in 10.0 mi WSW 5.8 mph - N/A   Clear
10:56 PM 37.0 °F - 24.1 °F 59% 30.32 in 10.0 mi Calm Calm - N/A   Clear
11:56 PM 36.0 °F 33.3 °F 24.1 °F 62% 30.32 in 10.0 mi West 3.5 mph - N/A   Clear